Regional Weather Roundup
Issued by NWS Cleveland, OH

Home | Current Version | Previous Version | Graphics & Text | Print | Product List | Glossary On
Versions: 1 2 3 4 5 6 7 8 9 10 11 12 13 14 15 16 17 18 19 20 21 22 23 24 25 26 27 28 29 30 31 32 33 34 35 36 37 38 39 40 41 42 43 44 45 46 47 48 49 50
000
ASUS41 KCLE 201300
RWRCLE
OHIO REGIONAL WEATHER ROUNDUP
NATIONAL WEATHER SERVICE WILMINGTON, OH
900 AM EDT SUN AUG 20 2017

NOTE: "FAIR" INDICATES FEW OR NO CLOUDS BELOW 12,000 FEET WITH NO
SIGNIFICANT WEATHER AND/OR OBSTRUCTIONS TO VISIBILITY.

OHZ001>008-015>018-024>027-034-035-043-044-201400-
   NORTHWEST OHIO

CITY           SKY/WX    TMP DP  RH WIND       PRES   REMARKS
DEFIANCE       FAIR      66  63  90 CALM      30.10R
FINDLAY        FAIR      68  61  78 S6        30.10R
TOLEDO EXPRESS FAIR      67  64  90 CALM      30.09R
TOLEDO EXEC    FAIR      68  64  87 SW6       30.11R
LIMA           FAIR      69  62  78 SE3       30.11R
$$

OHZ009>014-019>023-028>033-038-089-201400-
   NORTHEAST OHIO

CITY           SKY/WX    TMP DP  RH WIND       PRES   REMARKS
CLE-HOPKINS    FAIR      72  63  73 S7        30.12R
CLE-LAKEFRONT  FAIR      71  61  70 S12       30.10R
CUY CO. ARPT   SUNNY     72  61  68 S12       30.12R
LORAIN-ELYRIA    N/A    N/A N/A N/A MISG      30.12R
ASHTABULA      FAIR      65  63  93 S3        30.13R
AKRON-CANTON   FAIR      69  61  75 S6        30.13R
WOOSTER        NOT AVBL
MANSFIELD      FAIR      68  62  81 SE7       30.12R
YOUNGSTOWN     FAIR      67  61  81 S6        30.13R
$$

OHZ042-051>053-060>062-070>072-077>081-201400-
  SOUTHWEST OHIO

CITY           SKY/WX    TMP DP  RH WIND       PRES   REMARKS
CINC-COVINGTON FAIR      74  70  87 SW3       30.09R
CINC-LUNKEN    FAIR      73  70  90 CALM      30.08R
HAMILTON       FAIR      75  68  78 CALM      30.09R
DAYTON         NOT AVBL
WRIGHT-PAT AFB NOT AVBL
DAYTON GENERAL FAIR      74  65  73 S6        30.09R
WILMINGTON     FAIR      70  69  97 E3        30.09S
$$

OHZ036-037-039>041-045>050-054>059-063>069-073>076-082>088-201400-
  CENTRAL AND SOUTHEAST OHIO

CITY           SKY/WX    TMP DP  RH WIND       PRES   REMARKS
COLUMBUS       FAIR      71  66  84 SE6       30.10R
OSU AIRPORT    FAIR      70  66  87 SE8       30.10S
BOLTON FIELD   SUNNY     70  66  88 CALM      30.11R
RICKENBACK AFB NOT AVBL
NEWARK         FOG       64  63  96 CALM      30.11R VSB 1/4
MARION         FAIR      68  62  81 S8        30.12R
LANCASTER      FAIR      69  66  90 SE6       30.11S
ZANESVILLE     FAIR      65  62  90 CALM      30.13R
NEW PHILLY     FOG       64  63  96 CALM      30.13R VSB 1/2
$$



USA.gov is the U.S. government's official web portal to all federal, state and local government web resources and services.